DELTA 1 DEB, 42577

Orbit data source: Space-Track

DELTA 1 DEB, 42577 is space debris in SSO originally from a launch on Tue, 06 Nov 1973 UTC launched from the Air Force Western Test Range (AFWTR). Debris objects in space refer to the collection of defunct objects orbiting the Earth. Examples of debris include non-operational satellites, rocket bodies, and fragments generated from explosions, collisions, or faulty payload assembly.

Loading next visibility...
Identifier
42577, 1973-086HR
Orbit
SSO
Country
Flag of USUS
Related business
Manufacturer
Unknown
Mission
Spacecraft
Bus & Motor
Unknown
Mass
Unknown
Launch date (UTC)
1973-11-06 (52 years ago)
Launch vehicle
Unknown
Launch site
Air Force Western Test Range (AFWTR)
Object type
Payload
Rocket body
Debris
Shape & HBR
Unknown shape, 0.1 m
Radar Cross Section
Small (<0.1 m²)

Expand to show TLE details & history
Last TLE update: 9 hours ago

TLE from 9 hours ago
0 DELTA 1 DEB
1 42577U 73086HR  25298.04110512  .00000499  00000-0  26256-2 0  9994
2 42577 101.2340 218.7385 0081733 359.1233   0.9697 12.72040826 12400
Epoch: 2025-10-25T00:59Z
TLE epoch observation values (Epoch: 2025-10-25T00:59:11.482Z)
Latitude
-0.00003°
Longitude
170.26331°
Altitude
1,312.902 km
Speed
7.23 km/s
True Right ascension
14h 34m 57s
True Declination
0° 00' 00"
Sunlit
Object was in daylight at epoch
Visualization orbit readout
Latitude
Unknown
Longitude
Unknown
Altitude
Unknown
Speed
Unknown
Apparent Right ascension
Unknown
Apparent Declination
Unknown
Sunlit
N/A
Visualization observer readout
Local Sidereal Time
04:50:40
Azimuth
Unknown
Elevation
Unknown
Doppler factor
Unknown
Orbital elements
Apogee altitude
1,434.463 km
Perigee altitude
1,307.788 km
Semi-major axis
7,749.263 km
Eccentricity
0.00817
Inclination
101.234°
RAAN
218.7385°
Arg. of periapsis
359.1233°
True anomaly
0.98571°
Mean anomaly
0.9697°
Eccentric anomaly
0.97769°
Mean motion
3.18165 °/min
Orbital period
113.15 mins
BSTAR
0.0026256
Loading maneuver chart data...
Computing Atmospheric mass density...
Loading historical data...
Loading historical data...
Loading historical data...
Loading historical data...
Loading historical data...
Loading historical data...
Loading historical data...

Documentation

Showing up to 5 results
|